This is the latest recevied weather packets stored in our database for station/object KF0PEC-15. If no packets are shown the sender has not sent any weather packets the latest 1 day(s).
| Time | Temp. | Humidity | Pressure | Rain* | Wind** | Luminosity | Snow |
|---|---|---|---|---|---|---|---|
| 1777986441 | 6.11° C | 79% | 1016.4 hPa | 0 mm | 2.24 m/s, 136° | 231 W/m² | - |
| 1777985899 | 6.11° C | 79% | 1016.2 hPa | 0 mm | 2.24 m/s, 158° | 230 W/m² | - |
| 1777985419 | 6.67° C | 79% | 1016 hPa | 0 mm | 2.24 m/s, 148° | 189 W/m² | - |
| 1777984849 | 6.67° C | 78% | 1015.8 hPa | 0 mm | 1.79 m/s, 147° | 169 W/m² | - |
| 1777984369 | 6.67° C | 77% | 1015.7 hPa | 0 mm | 1.34 m/s, 173° | 142 W/m² | - |
| 1777983859 | 6.67° C | 77% | 1015.1 hPa | 0 mm | 1.34 m/s, 112° | 887 W/m² | - |
| 1777983329 | 6.67° C | 77% | 1015 hPa | 0 mm | 1.79 m/s, 75° | 756 W/m² | - |
| 1777982839 | 6.67° C | 76% | 1014.8 hPa | 0 mm | 1.34 m/s, 33° | 285 W/m² | - |
| 1777982279 | 7.22° C | 75% | 1014.5 hPa | 0 mm | 1.34 m/s, 137° | 82 W/m² | - |
| 1777981739 | 7.22° C | 74% | 1014.3 hPa | 0 mm | 1.34 m/s, 183° | 15 W/m² | - |
| 1777981239 | 7.22° C | 74% | 1014.3 hPa | 0 mm | 1.79 m/s, 107° | 2 W/m² | - |
| 1777980649 | 7.22° C | 74% | 1014 hPa | 0 mm | 1.79 m/s, 157° | 0 W/m² | - |
| 1777980074 | 7.22° C | 75% | 1014 hPa | 0 mm | 0.89 m/s, 160° | 0 W/m² | - |
| 1777979480 | 7.22° C | 76% | 1013.9 hPa | 0 mm | 1.34 m/s, 158° | 0 W/m² | - |
| 1777978969 | 7.22° C | 79% | 1014.1 hPa | 0 mm | 0.45 m/s, 89° | 0 W/m² | - |
| 1777978399 | 7.22° C | 78% | 1014.3 hPa | 0 mm | 0.89 m/s, 134° | 0 W/m² | - |
| 1777977889 | 7.22° C | 80% | 1014.1 hPa | 0 mm | 0.89 m/s, 133° | 0 W/m² | - |
| 1777977332 | 7.22° C | 81% | 1014.2 hPa | 0 mm | 0.89 m/s, 132° | 0 W/m² | - |
| 1777976844 | 7.22° C | 83% | 1014.1 hPa | 0 mm | 0.45 m/s, 134° | 0 W/m² | - |
| 1777976340 | 6.67° C | 89% | 1014.5 hPa | 0 mm | 0.89 m/s, 136° | 0 W/m² | - |
| 1777975754 | 6.67° C | 90% | 1014.6 hPa | 0 mm | 0.45 m/s, 145° | 0 W/m² | - |
| 1777975220 | 6.11° C | 90% | 1014.8 hPa | 0 mm | 0.45 m/s, 130° | 0 W/m² | - |
| 1777974739 | 6.11° C | 89% | 1014.7 hPa | 0 mm | 0.45 m/s, 123° | 0 W/m² | - |
| 1777974204 | 6.67° C | 88% | 1014.8 hPa | 0 mm | 0.45 m/s, 115° | 0 W/m² | - |
| 1777973604 | 6.67° C | 88% | 1014.2 hPa | 0 mm | 0 m/s | 0 W/m² | - |
* Rain latest hour (hover to see other rain measurements)
** Current wind speed in m/s (hover to see current wind gust speed)